Station OPTF1 - 8726607 - Old Port Tampa, FL Image indicating link to RSS feed of recent meteorological observations for station OPTF1


Conditions at OPTF1 as of
(5:00 am EDT)
0900 GMT on 05/26/2024:
     

Click on the graph icon in the table below to see a time series plot of the last five days of that observation.

5-day plot - Wind Direction Wind Direction (WDIR): N ( 10 deg true )
5-day plot - Wind Speed Wind Speed (WSPD): 5.1 kts
5-day plot - Wind Gust Wind Gust (GST): 7.0 kts
5-day plot - Atmospheric Pressure Atmospheric Pressure (PRES):29.93 in
5-day plot - Pressure Tendency Pressure Tendency (PTDY):-0.02 in ( Falling )
5-day plot - Air Temperature Air Temperature (ATMP): 79.5 °F
5-day plot - Wind Speed at 10 Meters Wind Speed at 10 meters (WSPD10M): 5.8 kts
5-day plot - Wind Speed at 20 Meters Wind Speed at 20 meters (WSPD20M): 5.8 kts
5-day plot -  Wind Speed, Wind Gust and Atmospheric Pressure Combined plot of Wind Speed, Gust, and Air Pressure
NOS Water Level Observation Network Water Level
Previous observations
TIME
(EDT)
5-day plot - Wind Direction
WDIR
 
5-day plot - Wind Speed
WSPD
kts
5-day plot - Wind Gust
GST
kts
5-day plot - Wave Height
WVHT
ft
5-day plot - Dominant Wave Period
DPD
sec
5-day plot - Average Wave Period
APD
sec
5-day plot - Mean Wave Direction
MWD
 
5-day plot - Atmospheric Pressure
PRES
in
5-day plot - Pressure Tendency
PTDY
in
5-day plot - Air Temperature
ATMP
°F
5-day plot - Water Temperature
WTMP
°F
5-day plot - Dew Point
DEWP
°F
5-day plot - Salinity
SAL
psu
5-day plot - Visibility
VIS
nmi
5-day plot - Tide (above MLLW)
TIDE
ft
2024-05-26 04:54 am NE 2.9 4.1----29.92- 78.1-----
2024-05-26 04:48 am NE 2.9 4.1----29.93-------
2024-05-26 04:42 am E 1.9 7.0----29.92-------
2024-05-26 04:36 am N 2.9 6.0----29.92-------
2024-05-26 04:30 am NE 1.9 6.0----29.92- 78.3-----
2024-05-26 04:24 am N 4.1 7.0----29.92- 80.1-----
2024-05-26 04:18 am N 5.1 7.0----29.92- 80.2-----
2024-05-26 04:12 am N 6.0 8.0----29.92- 80.2-----
2024-05-26 04:06 amNNW 6.0 7.0----29.92- 80.1-----
2024-05-26 04:00 amNNW 6.0 7.0----29.92-0.03 80.1-----
2024-05-26 03:54 am N 6.0 8.0----29.93- 80.1-----
2024-05-26 03:48 am N 6.0 7.0----29.93- 80.1-----
2024-05-26 03:42 am N 7.0 8.0----29.92- 80.1-----
2024-05-26 03:36 am N 7.0 8.0----29.93- 80.6-----
2024-05-26 03:30 am N 6.0 8.0----29.92- 80.2-----
2024-05-26 03:24 am N 5.1 7.0----29.92- 80.1-----
2024-05-26 03:18 am N 5.1 7.0----29.93- 80.2-----
2024-05-26 03:12 am N 6.0 7.0----29.93- 80.4-----
2024-05-26 03:06 am N 6.0 8.0----29.93- 80.4-----
2024-05-26 03:00 am N 6.0 7.0----29.93-0.03 80.4-----
2024-05-26 02:54 am N 5.1 7.0----29.93- 80.4-----
2024-05-26 02:48 am N 6.0 8.0----29.93- 80.4-----
2024-05-26 02:42 am N 6.0 7.0----29.94- 80.6-----
2024-05-26 02:36 am N 5.1 6.0----29.94- 80.6-----
2024-05-26 02:30 am N 4.1 7.0----29.94- 80.6-----
2024-05-26 02:24 am N 6.0 7.0----29.94- 80.4-----
2024-05-26 02:18 am N 6.0 7.0----29.94- 80.4-----
2024-05-26 02:12 am N 5.1 5.1----29.94- 80.4-----
2024-05-26 02:06 am N 5.1 6.0----29.94- 80.6-----
2024-05-26 02:00 amNNW 4.1 6.0----29.94-0.02 80.6-----
2024-05-26 01:54 amNNW 2.9 6.0----29.94- 80.6-----
2024-05-26 01:48 amNNW 4.1 6.0----29.95- 80.6-----
2024-05-26 01:42 am N 2.9 7.0----29.95- 80.8-----
2024-05-26 01:36 am N 4.1 7.0----29.95- 80.8-----
2024-05-26 01:30 am N 2.9 5.1----29.95- 80.6-----
2024-05-26 01:24 amNNW 1.9 2.9----29.95- 80.1-----
2024-05-26 01:18 am- 0.0 1.9----29.95- 78.6-----
2024-05-26 01:12 am NE 1.0 1.9----29.96- 79.0-----
2024-05-26 01:06 amENE 1.9 4.1----29.95- 78.4-----
2024-05-26 01:00 am NE 2.9 2.9----29.96+0.00 78.4-----
2024-05-26 12:54 amENE 1.9 2.9----29.95- 78.1-----
2024-05-26 12:48 amENE 2.9 4.1----29.95- 78.1-----
2024-05-26 12:42 am E 1.9 2.9----29.95- 77.9-----
2024-05-26 12:36 amENE 1.9 2.9----29.96- 78.1-----
2024-05-26 12:30 am E 1.9 2.9----29.96- 78.3-----
2024-05-26 12:24 am E 1.9 2.9----29.96- 79.3-----
2024-05-26 12:18 am N 1.9 4.1----29.96- 81.1-----
2024-05-26 12:12 am N 2.9 4.1----29.96- 81.1-----
2024-05-26 12:06 am N 4.1 5.1----29.96- 81.1-----
2024-05-26 12:00 amNNW 5.1 5.1----29.96+0.03 81.5-----
2024-05-25 11:54 pmNNW 4.1 5.1----29.96- 81.3-----
2024-05-25 11:48 pmNNW 2.9 4.1----29.96- 81.5-----
2024-05-25 11:42 pm NW 2.9 5.1----29.96- 81.1-----
2024-05-25 11:36 pm NW 5.1 6.0----29.96- 81.5-----
2024-05-25 11:30 pm NW 5.1 6.0----29.97- 81.5-----
2024-05-25 11:24 pmNNW 2.9 5.1----29.96- 81.5-----
2024-05-25 11:18 pm NW 4.1 7.0----29.96- 81.5-----
2024-05-25 11:12 pmNNW 6.0 7.0----29.96- 81.7-----
2024-05-25 11:06 pmNNW 5.1 7.0----29.96- 81.7-----
2024-05-25 11:00 pm NW 6.0 8.0----29.96+0.03 81.7-----
2024-05-25 10:54 pmNNW 6.0 8.0----29.96- 81.5-----
2024-05-25 10:48 pm NW 5.1 7.0----29.96- 81.7-----
2024-05-25 10:42 pmNNW 6.0 8.0----29.96- 82.0-----
2024-05-25 10:36 pm NW 5.1 6.0----29.96- 81.7-----
2024-05-25 10:30 pmWNW 5.1 6.0----29.95- 81.7-----
2024-05-25 10:24 pmWNW 4.1 6.0----29.95- 81.9-----
2024-05-25 10:18 pmWNW 5.1 7.0----29.95- 81.9-----
2024-05-25 10:12 pmWNW 5.1 7.0----29.95- 82.2-----
2024-05-25 10:06 pm NW 6.0 7.0----29.95- 82.0-----
2024-05-25 10:00 pmWNW 6.0 7.0----29.95+0.02 82.0-----
2024-05-25 09:54 pmWNW 6.0 7.0----29.95- 82.0-----
2024-05-25 09:48 pmWNW 5.1 7.0----29.95- 82.0-----
2024-05-25 09:42 pmWNW 6.0 7.0----29.94- 82.2-----
2024-05-25 09:36 pm NW 5.1 7.0----29.94- 82.4-----
2024-05-25 09:30 pmWNW 6.0 8.0----29.93- 82.4-----
2024-05-25 09:24 pm NW 6.0 8.9----29.93- 82.4-----
2024-05-25 09:18 pm NW 7.0 8.9----29.94- 82.4-----
2024-05-25 09:12 pm NW 8.0 8.9----29.94- 82.6-----
2024-05-25 09:06 pmWNW 8.0 8.9----29.93- 82.4-----
2024-05-25 09:00 pmWNW 8.0 8.9----29.93- 82.6-----
2024-05-25 08:54 pmWNW 8.0 9.9----29.93- 82.4-----
2024-05-25 08:48 pmWNW 8.0 8.9----29.93- 82.8-----
2024-05-25 08:42 pmWNW 8.0 11.1----29.93- 82.8-----
2024-05-25 08:36 pmWNW 8.9 11.1----29.93- 82.9-----
2024-05-25 08:30 pmWNW 8.9 11.1----29.93- 82.9-----
2024-05-25 08:24 pmWNW 9.9 12.0----29.93- 82.9-----
2024-05-25 08:18 pm NW 8.9 12.0----29.93- 83.1-----
2024-05-25 08:12 pm NW 11.1 13.0----29.93- 83.1-----
2024-05-25 08:06 pm NW 11.1 13.0----29.93- 83.3-----
2024-05-25 08:00 pm NW 11.1 12.0----29.93+0.02 83.5-----
2024-05-25 07:54 pm NW 12.0 14.0----29.93- 83.5-----
2024-05-25 07:48 pm-------29.93- 83.5-----
2024-05-25 07:42 pm-------29.93- 83.5-----
2024-05-25 07:36 pm-------29.93- 83.7-----
2024-05-25 07:30 pm NW 13.0 15.0----29.93-------
2024-05-25 07:24 pm NW 14.0 15.0----29.93-------
2024-05-25 07:18 pm NW 11.1 15.0----29.93- 84.0-----
2024-05-25 07:12 pm NW 13.0 15.0----29.93- 84.0-----
2024-05-25 07:06 pm NW 14.0 15.0----29.93- 84.0-----
2024-05-25 07:00 pm NW 13.0 15.9----29.93+0.00 84.2-----
2024-05-25 06:54 pm NW 13.0 17.1----29.93- 84.6-----
2024-05-25 06:48 pm NW 14.0 17.1----29.93-------
2024-05-25 06:42 pm NW 15.0 17.1----29.93-------
2024-05-25 06:36 pm NW 13.0 15.9----29.93-------
2024-05-25 06:30 pm NW 13.0 15.0----29.93- 84.9-----
2024-05-25 06:24 pm NW 12.0 15.0----29.92- 85.6-----
2024-05-25 06:18 pmWNW 12.0 15.0----29.92- 85.6-----
2024-05-25 06:12 pmWNW 9.9 14.0----29.92- 86.0-----
2024-05-25 06:06 pmWNW 12.0 15.0----29.91- 86.0-----
2024-05-25 06:00 pm W 9.9 14.0------ 86.2-----
2024-05-25 05:54 pm W 11.1 14.0------ 86.2-----
2024-05-25 05:48 pmWNW 9.9 14.0----29.91-------
2024-05-25 05:42 pm W 11.1 13.0----29.91-------
2024-05-25 05:36 pmWNW 9.9 12.0----29.91-------
2024-05-25 05:30 pm W 11.1 15.9----29.91- 86.4-----
2024-05-25 05:24 pmWNW 11.1 14.0----29.91- 85.6-----
2024-05-25 05:18 pmWNW 12.0 14.0----29.91- 85.8-----
2024-05-25 05:12 pmWNW 12.0 15.9----29.91- 85.3-----
2024-05-25 05:06 pmWNW 13.0 15.9----29.91- 85.8-----
2024-05-25 05:00 pm NW 13.0 15.9----29.91-0.04 85.6-----
2024-05-25 04:54 pm NW 11.1 18.1----29.92- 85.6-----
2024-05-25 04:48 pm NW 13.0 17.1----29.92-------
2024-05-25 04:42 pm NW 15.0 17.1----29.92-------
2024-05-25 04:36 pm NW 14.0 15.9----29.92-------
2024-05-25 04:30 pmWNW 12.0 18.1----29.92- 86.0-----
2024-05-25 04:24 pmWNW 8.9 14.0----29.92- 86.9-----
2024-05-25 04:18 pm NW 12.0 15.0----29.92- 85.8-----
2024-05-25 04:12 pmWNW 11.1 14.0----29.93- 86.5-----
2024-05-25 04:06 pmWNW 9.9 15.9----29.93- 86.9-----
2024-05-25 04:00 pm-------29.93-0.04 86.0-----
2024-05-25 03:54 pm-------29.93- 85.6-----
2024-05-25 03:48 pm NW 14.0 17.1----29.93- 85.5-----
2024-05-25 03:42 pm NW 13.0 15.9----29.93- 85.5-----
2024-05-25 03:36 pm NW 13.0 15.0----29.93- 85.3-----
2024-05-25 03:30 pmNNW 14.0 17.1----29.93-------
2024-05-25 03:24 pmNNW 15.0 17.1----29.93-------
2024-05-25 03:18 pm NW 13.0 15.0----29.93- 85.1-----
2024-05-25 03:12 pmNNW 13.0 15.0----29.93- 84.9-----
2024-05-25 03:06 pmNNW 12.0 14.0----29.93- 84.9-----
2024-05-25 03:00 pmNNW 11.1 13.0----29.93-0.04 85.3-----
2024-05-25 02:54 pmNNW 8.9 9.9----29.93- 85.6-----
2024-05-25 02:48 pmNNW 8.0 9.9----29.93- 85.5-----
2024-05-25 02:42 pm NW 8.0 9.9----29.93- 85.3-----
2024-05-25 02:36 pmNNW 8.0 9.9----29.94- 85.6-----
2024-05-25 02:30 pmNNW 8.0 9.9----29.94- 85.3-----
2024-05-25 02:24 pmNNW 8.9 9.9----29.94- 85.1-----
2024-05-25 02:18 pmNNW 8.9 9.9----29.94- 85.3-----
2024-05-25 02:12 pmNNW 8.9 9.9----29.95- 85.1-----
2024-05-25 02:06 pmNNW 8.9 9.9----29.95- 84.9-----
2024-05-25 02:00 pmNNW 8.0 9.9----29.95-0.01 85.3-----
2024-05-25 01:54 pmNNW 8.0 8.9----29.96- 85.3-----
2024-05-25 01:48 pm NW 8.9 11.1----29.96-------
2024-05-25 01:42 pmNNW 5.1 7.0----29.96-------
2024-05-25 01:36 pmNNW 6.0 7.0----29.96-------
2024-05-25 01:30 pmNNW 5.1 6.0----29.96- 86.4-----
2024-05-25 01:24 pmNNW 5.1 5.1----29.96- 86.4-----
2024-05-25 01:18 pm NW 2.9 4.1----29.97- 86.2-----
2024-05-25 01:12 pm NW 4.1 5.1----29.97- 85.8-----
2024-05-25 01:06 pm NW 4.1 4.1----29.97- 85.8-----
2024-05-25 01:00 pm NW 4.1 5.1----29.97+0.01 85.6-----
2024-05-25 12:54 pmWNW 2.9 4.1----29.97- 85.6-----
2024-05-25 12:48 pmWNW 2.9 4.1----29.97- 85.6-----
2024-05-25 12:42 pmWNW 2.9 4.1----29.97- 85.6-----
2024-05-25 12:36 pm NW 2.9 4.1----29.98- 85.6-----
2024-05-25 12:30 pm-------29.98- 85.6-----
2024-05-25 12:24 pm-------29.97- 85.6-----
2024-05-25 12:18 pm NW 2.9 2.9----29.97- 85.6-----
2024-05-25 12:12 pm NW 1.9 2.9----29.97- 86.0-----
2024-05-25 12:06 pmNNW 2.9 2.9----29.97- 85.8-----
2024-05-25 12:00 pm NW 1.9 2.9----29.97+0.02 85.6-----
2024-05-25 11:54 amNNW 1.9 4.1----29.97- 85.6-----
2024-05-25 11:48 am NW 2.9 4.1----29.97-------
2024-05-25 11:42 am N 4.1 5.1----29.97-------
2024-05-25 11:36 am N 5.1 6.0----29.97-------
2024-05-25 11:30 am N 5.1 6.0----29.97- 84.9-----
2024-05-25 11:24 am N 6.0 7.0----29.97- 84.2-----
2024-05-25 11:18 am N 6.0 7.0----29.97- 84.0-----
2024-05-25 11:12 am N 5.1 6.0----29.97- 84.2-----
2024-05-25 11:06 am N 5.1 5.1----29.97- 84.2-----
2024-05-25 11:00 am N 4.1 5.1----29.96+0.02 84.6-----
2024-05-25 10:54 amNNW 4.1 5.1----29.96- 83.8-----
2024-05-25 10:48 am N 1.9 2.9----29.96- 84.9-----
2024-05-25 10:42 amNNW 1.9 2.9----29.96- 83.7-----
2024-05-25 10:36 am NW 1.9 2.9----29.96- 83.7-----
2024-05-25 10:30 amWNW 1.9 2.9----29.96- 83.1-----
2024-05-25 10:24 amWNW 1.9 2.9----29.96- 83.1-----
2024-05-25 10:18 amWSW 1.9 4.1----29.96- 82.9-----
2024-05-25 10:12 am W 1.9 4.1----29.96- 82.6-----
2024-05-25 10:06 am W 4.1 5.1----29.96- 82.2-----
2024-05-25 10:00 amWSW 2.9 4.1----29.96+0.04------
2024-05-25 09:54 am SW 2.9 5.1----29.96-------
2024-05-25 09:48 am SW 4.1 5.1----29.96-------
2024-05-25 09:42 am SW 4.1 5.1----29.96-------
2024-05-25 09:36 amSSW 4.1 4.1----29.96-------
2024-05-25 09:30 amSSW 2.9 4.1----29.96- 81.7-----
2024-05-25 09:24 am SW 2.9 5.1----29.96- 81.5-----
2024-05-25 09:18 am SW 2.9 4.1----29.96- 81.7-----
2024-05-25 09:12 am S 4.1 5.1----29.96- 82.2-----
2024-05-25 09:06 am SW 1.9 2.9----29.96- 82.2-----
2024-05-25 09:00 am SW 1.9 2.9----29.96+0.02 82.2-----
2024-05-25 08:54 am SW 1.9 2.9----29.96- 82.2-----
2024-05-25 08:48 amSSW 1.9 1.9----29.96-------
2024-05-25 08:42 amSSW 1.0 1.9----29.96-------
2024-05-25 08:36 am- 0.0 1.0----29.95-------
2024-05-25 08:30 amSSE 1.0 1.9----29.95- 83.3-----
2024-05-25 08:24 am SE 1.9 2.9----29.94- 82.2-----
2024-05-25 08:18 am E 2.9 2.9----29.94- 81.9-----
2024-05-25 08:12 am E 1.9 2.9----29.94- 81.7-----
2024-05-25 08:06 am E 1.9 2.9----29.95- 81.5-----
2024-05-25 08:00 am E 1.9 2.9----29.94+0.02 81.0-----
2024-05-25 07:54 am E 2.9 4.1----29.94- 80.4-----
2024-05-25 07:48 am E 2.9 4.1----29.94- 80.4-----
2024-05-25 07:42 am E 1.9 2.9----29.94- 80.4-----
2024-05-25 07:36 am E 1.9 2.9----29.94- 80.1-----
2024-05-25 07:30 amESE 1.9 2.9----29.94- 79.5-----
2024-05-25 07:24 am E 1.0 4.1----29.93- 79.5-----
2024-05-25 07:18 amESE 2.9 4.1----29.93- 79.0-----
2024-05-25 07:12 am E 1.0 1.9----29.93- 78.8-----
2024-05-25 07:06 am E 1.9 1.9----29.93- 78.4-----
2024-05-25 07:00 amESE 1.9 1.9----29.93+0.00 77.9-----
2024-05-25 06:54 am E 1.0 2.9----29.93- 77.7-----
2024-05-25 06:48 amESE 2.9 4.1----29.93- 77.5-----
2024-05-25 06:42 am E 2.9 2.9----29.93- 77.5-----
2024-05-25 06:36 am E 1.9 2.9----29.93- 77.7-----
2024-05-25 06:30 am-------29.93- 78.1-----
2024-05-25 06:24 am-------29.93- 78.1-----
2024-05-25 06:18 am E 1.0 2.9----29.93- 78.8-----
2024-05-25 06:12 amENE 1.9 1.9----29.93- 79.0-----
2024-05-25 06:06 am- 0.0 1.9----29.93- 78.8-----
2024-05-25 06:00 am- 0.0 0.0----29.93+0.00------
2024-05-25 05:54 am- 0.0 1.0----29.93-------
2024-05-25 05:48 am- 0.0 1.0----29.93- 79.2-----
2024-05-25 05:42 am E 1.0 1.9----29.93- 79.3-----
2024-05-25 05:36 am E 1.9 2.9----29.93- 79.2-----
2024-05-25 05:30 am E 1.0 1.9------ 79.0-----
2024-05-25 05:24 am- 0.0 0.0------ 79.5-----
2024-05-25 05:18 am- 0.0 1.0----29.92- 79.9-----
2024-05-25 05:12 amENE 1.0 1.9----29.92- 79.9-----
2024-05-25 05:06 am E 1.0 1.0----29.92- 79.7-----
2024-05-25 05:00 am E 1.0 1.9----29.92-0.01------
2024-05-25 04:54 am- 0.0 1.0----29.92-------